Showing default

HADES-SA (SPINNYONE), 68446

Orbit data source: Space-Track

HADES-SA (SPINNYONE), 68446 is a payload satellite owned by Hydra Space (ES) in SSO that was launched on Mon, 30 Mar 2026 UTC via an FALCON 9 launch vehicle from the Air Force Western Test Range (AFWTR). Payload-class satellites include a variety of spacecraft equipped with specific instruments for various scientific and technological missions. These include communications satellites like Starlink; space stations such as the ISS; scientific satellites like the Hubble; Earth observation satellites from companies like Planet Labs, Umbra, and HawkEye 360; GPS; miniature CubeSats for education and research; and military/defense satellites.

Loading next visibility...
Identifier
68446, 2026-067AG
Orbit
SSO
Country
Flag of ESES / SPN
Related business
Manufacturer
Hydra Space
Mission
Operational Amateur Communications
Bus & Motor
POCKETQUBE 1P, Unknown motor
Mass
0.25 kg wet, 0.25 kg dry
Launch date (UTC)
2026-03-30 (5 months ago)
Launch vehicle
FALCON 9
Launch site
Air Force Western Test Range (AFWTR)
Object type
Payload
Rocket body
Debris
Shape & HBR
Box + 2 Ant, 14.5 m
Radar Cross Section
0.006 m², Medium (>0.1 m² and < 1m²)

Expand to show TLE details & history
Last TLE update: 1 day ago

TLE from 1 day ago
0 HADES-SA (SPINNYONE)
1 68446U 26067AG  26247.59761519  .00010973  00000-0  48973-3 0  9997
2 68446  97.4466 204.8751 0007831 140.4162 219.7647 15.21522429 23992
Epoch: 2026-09-04T14:20Z
TLE epoch observation values (Epoch: 2026-09-04T14:20:33.952Z)
Latitude
-0.00001°
Longitude
6.01449°
Altitude
508.483 km
Speed
7.607 km/s
True Right ascension
13h 39m 30s
True Declination
0° 00' 00"
Sunlit
Object was in daylight at epoch
Visualization orbit readout
Latitude
Unknown
Longitude
Unknown
Altitude
Unknown
Speed
Unknown
Apparent Right ascension
Unknown
Apparent Declination
Unknown
Sunlit
N/A
Visualization observer readout
Local Sidereal Time
06:45:38
Azimuth
Unknown
Elevation
Unknown
Doppler factor
Unknown
Orbital elements
Apogee altitude
503.598 km
Perigee altitude
492.828 km
Semi-major axis
6,876.35 km
Eccentricity
0.00078
Inclination
97.4466°
RAAN
204.8751°
Arg. of periapsis
140.4162°
True anomaly
219.70734°
Mean anomaly
219.7647°
Eccentric anomaly
219.73602°
Mean motion
3.80633 °/min
Orbital period
94.58 mins
BSTAR
0.00048973
Loading maneuver chart data...
Computing Atmospheric mass density...
Loading historical data...
Loading historical data...
Loading historical data...
Loading historical data...
Loading historical data...
Loading historical data...
Loading historical data...

Documentation

Showing up to 5 results
|